Yankton, SD

8:53 PM CST on December 14, 2019 (GMT -0600)
Gurney Municipal

Weather History for KYKN - October, 2019

Change the Weather History Date:

Saturday, October 5, 2019

  Actual Average Record
Temperature  
Mean Temperature 57 °F -  
Max Temperature 64 °F 68 °F 87 °F (1975)
Min Temperature 50 °F 41 °F 26 °F (1988)
Degree Days  
Heating Degree Days 8    
Growing Degree Days 7 (Base 50)    
Moisture  
Dew Point 47 °F    
Average Humidity 78    
Maximum Humidity 100    
Minimum Humidity 41    
Precipitation  
Precipitation 0.02 in - - ()
Sea Level Pressure  
Sea Level Pressure 29.90 in    
Wind  
Wind Speed 13 mph (SW)    
Max Wind Speed 37 mph    
Max Gust Speed 51 mph    
Visibility 9 miles    
Events Rain , Thunderstorm    
Averages and records for this station are not official NWS values.
T = Trace of Precipitation, MM = Missing Value Source: NWS Daily Summary

Daily Weather History Graph

Daily Weather History Graph

Search for Another Location

Airport or City:

Astronomy

Oct. 05, 2019 Rise Set
Actual Time 7:31 AM CDT 7:04 PM CDT
Civil Twilight 7:02 AM CDT 7:32 PM CDT
Nautical Twilight 6:30 AM CDT 8:05 PM CDT
Astronomical Twilight 5:56 AM CDT 8:38 PM CDT
Moon 3:06 PM CDT (10/5) No Moon Set
Length of Visible Light 12h 29m
Length of Day
11h 32m
Waxing Crescent, 50% of the Moon is Illuminated
Oct 5
Waxing Crescent
Oct 13
Full
Oct 21
Last Quarter
Oct 27
New
Nov 4
First Quarter

Hourly Weather History & Observations

Time (CDT) Temp. Dew Point Humidity Pressure Visibility Wind Dir Wind Speed Gust Speed Precip Events Conditions
12:56 AM 51.1 °F 46.9 °F 86% 29.98 in 10.0 mi SSE 15.0 mph 25.3 mph 0.01 in   Overcast
1:09 AM 51.8 °F 46.4 °F 82% 29.92 in 10.0 mi SSE 17.3 mph - N/A   Overcast
1:56 AM 51.1 °F 48.0 °F 89% 29.95 in 10.0 mi SSE 13.8 mph - 0.00 in   Overcast
2:44 AM 51.8 °F 48.2 °F 88% 29.90 in 10.0 mi SSE 12.7 mph - N/A Thunderstorm Overcast
2:56 AM 52.0 °F 50.0 °F 93% 29.93 in 10.0 mi South 10.4 mph - N/A Thunderstorm Overcast
3:06 AM 51.8 °F 50.0 °F 94% 29.88 in 10.0 mi South 10.4 mph - N/A Thunderstorm Thunderstorm
3:34 AM 51.8 °F 50.0 °F 94% 29.88 in 10.0 mi WSW 3.5 mph - 0.00 in Rain Light Rain
3:56 AM 52.0 °F 51.1 °F 97% 29.89 in 5.0 mi SSE 4.6 mph - 0.00 in Rain Light Rain
4:56 AM 52.0 °F 51.1 °F 97% 29.86 in 8.0 mi East 4.6 mph - 0.01 in   Overcast
5:54 AM 51.8 °F 51.8 °F 100% 29.78 in 4.0 mi ESE 5.8 mph - N/A   Overcast
5:56 AM 52.0 °F 52.0 °F 100% 29.83 in 4.0 mi ESE 8.1 mph - N/A   Overcast
6:19 AM 51.8 °F 51.8 °F 100% 29.77 in 3.0 mi ESE 5.8 mph - N/A   Overcast
6:56 AM 52.0 °F 52.0 °F 100% 29.82 in 2.5 mi East 4.6 mph - N/A   Overcast
7:12 AM 53.6 °F 51.8 °F 94% 29.77 in 4.0 mi ESE 5.8 mph - N/A   Overcast
7:42 AM 53.6 °F 53.6 °F 100% 29.78 in 6.0 mi SE 5.8 mph - N/A   Overcast
7:56 AM 54.0 °F 53.1 °F 97% 29.82 in 9.0 mi SSE 5.8 mph - N/A   Overcast
8:03 AM 53.6 °F 53.6 °F 100% 29.78 in 10.0 mi SSE 6.9 mph - N/A   Overcast
8:22 AM 53.6 °F 53.6 °F 100% 29.78 in 10.0 mi Variable 4.6 mph - N/A   Overcast
8:56 AM 57.0 °F 53.1 °F 87% 29.82 in 10.0 mi West 13.8 mph - N/A   Overcast
9:56 AM 55.9 °F 50.0 °F 80% 29.87 in 10.0 mi WNW 25.3 mph 34.5 mph N/A   Overcast
10:56 AM 57.0 °F 48.9 °F 74% 29.90 in 10.0 mi West 25.3 mph 34.5 mph N/A   Overcast
11:56 AM 55.9 °F 46.0 °F 69% 29.92 in 10.0 mi West 24.2 mph 36.8 mph N/A   Overcast
12:38 PM 55.4 °F 44.6 °F 67% 29.90 in 10.0 mi WNW 24.2 mph 33.4 mph N/A   Overcast
12:56 PM 57.0 °F 44.1 °F 62% 29.93 in 10.0 mi WNW 31.1 mph 39.1 mph N/A   Overcast
1:56 PM 60.1 °F 43.0 °F 53% 29.91 in 10.0 mi WNW 36.8 mph 50.6 mph N/A   Mostly Cloudy
2:56 PM 61.0 °F 44.1 °F 54% 29.92 in 10.0 mi WNW 25.3 mph 38.0 mph N/A   Scattered Clouds
3:56 PM 63.0 °F 42.1 °F 46% 29.92 in 10.0 mi WNW 27.6 mph 35.7 mph N/A   Partly Cloudy
4:56 PM 63.0 °F 39.0 °F 41% 29.94 in 10.0 mi West 25.3 mph 29.9 mph N/A   Clear
5:56 PM 61.0 °F 39.0 °F 44% 29.96 in 10.0 mi WNW 17.3 mph - N/A   Clear
6:56 PM 59.0 °F 39.0 °F 48% 29.96 in 10.0 mi West 15.0 mph - N/A   Clear
7:56 PM 55.9 °F 39.0 °F 53% 29.99 in 10.0 mi West 9.2 mph - N/A   Clear
8:56 PM 54.0 °F 37.9 °F 55% 30.00 in 10.0 mi SW 8.1 mph - N/A   Clear
9:56 PM 51.1 °F 39.0 °F 63% 30.02 in 10.0 mi West 10.4 mph - N/A   Clear
10:56 PM 51.1 °F 37.9 °F 61% 30.05 in 10.0 mi West 11.5 mph - N/A   Clear
11:56 PM 50.0 °F 37.9 °F 63% 30.05 in 10.0 mi West 9.2 mph - N/A   Clear